Location: *
(46.1006°N, 1.8394°E)
Time: 04:34:56
(UTC+00:00)

COSMO-SKYMED 1 - Pass Details

Date: 20 September 2019
Orbit: 621 x 623 km, 97.9° (Epoch: 22 October)

Event Time Altitude Azimuth Distance (km) Brightness Sun altitude
Rises 18:44:03 0° 5° (N) 2,915 6.1 -9.3°
Reaches altitude 10° 18:46:22 10° 357° (N) 2,003 5.4 -9.7°
Maximum altitude 18:50:21 36° 291° (WNW) 988 4.4 -10.3°
Drops below altitude 10° 18:54:19 10° 225° (SW) 1,988 5.6 -11.0°
Sets 18:56:37 0° 217° (SW) 2,890 6.3 -11.4°
